This is the latest recevied weather packets stored in our database for station/object K8BCO. If no packets are shown the sender has not sent any weather packets the latest 10 day(s).
| Time | Temp. | Humidity | Pressure | Rain* | Wind** | Luminosity | Snow |
|---|---|---|---|---|---|---|---|
| 1777340118 | 10.56° C | 98% | 999.3 hPa | 0 mm | - | 0 W/m² | - |
| 1777339516 | 10.56° C | 97% | 999.5 hPa | 0 mm | - | 0 W/m² | - |
| 1777338917 | 11.11° C | 97% | 999.8 hPa | 0 mm | - | 0 W/m² | - |
| 1777338316 | 11.11° C | 96% | 999.9 hPa | 0.25 mm | - | 0 W/m² | - |
| 1777337716 | 11.11° C | 95% | 999.8 hPa | 0.25 mm | - | 1 W/m² | - |
| 1777337116 | 11.11° C | 94% | 1000.2 hPa | 0.51 mm | - | 3 W/m² | - |
| 1777336517 | 11.11° C | 94% | 1000.4 hPa | 0.51 mm | - | 2 W/m² | - |
| 1777335917 | 11.11° C | 92% | 1000.5 hPa | 0.51 mm | - | 4 W/m² | - |
| 1777335317 | 11.67° C | 90% | 1000.7 hPa | 0.51 mm | - | 5 W/m² | - |
| 1777334717 | 12.22° C | 88% | 1000.9 hPa | 0.51 mm | - | 4 W/m² | - |
| 1777334117 | 12.78° C | 82% | 1001.2 hPa | 0.25 mm | - | 9 W/m² | - |
| 1777333517 | 13.33° C | 82% | 1000.8 hPa | 0.25 mm | - | 60 W/m² | - |
| 1777332918 | 13.33° C | 81% | 1001.3 hPa | 0.25 mm | - | 120 W/m² | - |
| 1777332317 | 13.89° C | 75% | 1001.6 hPa | 0.25 mm | - | 63 W/m² | - |
| 1777331720 | 14.44° C | 74% | 1001.8 hPa | 0.25 mm | - | 79 W/m² | - |
| 1777331118 | 14.44° C | 72% | 1002.2 hPa | 0.25 mm | - | 112 W/m² | - |
| 1777330518 | 15° C | 69% | 1002.2 hPa | 0.25 mm | - | 100 W/m² | - |
| 1777329921 | 15° C | 69% | 1002.3 hPa | 0 mm | - | 31 W/m² | - |
| 1777329318 | 15.56° C | 67% | 1002.1 hPa | 0 mm | - | 34 W/m² | - |
| 1777328719 | 15.56° C | 64% | 1002.1 hPa | 0 mm | - | 83 W/m² | - |
| 1777328116 | 16.11° C | 61% | 1001.9 hPa | 0 mm | - | 69 W/m² | - |
| 1777327518 | 16.67° C | 61% | 1002.3 hPa | 0 mm | - | 82 W/m² | - |
| 1777326916 | 17.22° C | 58% | 1002.3 hPa | 0 mm | - | 67 W/m² | - |
| 1777326316 | 17.78° C | 54% | 1002.3 hPa | 0 mm | - | 65 W/m² | - |
| 1777325717 | 17.78° C | 53% | 1002.1 hPa | 0 mm | - | 96 W/m² | - |
* Rain latest hour (hover to see other rain measurements)
** Current wind speed in m/s (hover to see current wind gust speed)